962  
ASUS41 KRLX 212110  
RWRRLX  
WEST VIRGINIA REGIONAL WEATHER ROUNDUP  
NATIONAL WEATHER SERVICE CHARLESTON WV  
500 PM EDT SAT APR 21 2018  
 
NOTE: "FAIR" INDICATES FEW OR NO CLOUDS BELOW 12,000 FEET WITH NO  
SIGNIFICANT WEATHER AND/OR S TO VISIBILITY
.  
 
WVZ003-212200-  
NORTHERN PANHANDLE OF WEST VIRGINIA  
 
CITY SKY/WX TMP DP RH WIND PRES REMARKS
 
WHEELING FAIR 56 23 27 NW6 30.34F  

 
 
WVZ009-212200-  
NORTHWEST WEST VIRGINIA  
 
CITY SKY/WX TMP DP RH WIND PRES REMARKS
 
PARKERSBURG FAIR 63 15 15 VRB5 30.35F  

 
 
WVZ006-212200-  
WESTERN WEST VIRGINIA  
 
CITY SKY/WX TMP DP RH WIND PRES REMARKS
 
HUNTINGTON FAIR 68 19 15 E3 30.29F  

 
 
WVZ015-212200-  
WEST CENTRAL WEST VIRGINIA  
 
CITY SKY/WX TMP DP RH WIND PRES REMARKS
 
CHARLESTON FAIR 70 20 15 CALM 30.27F  

 
 
WVZ022-031-212200-  
NORTH CENTRAL WEST VIRGINIA  
 
CITY SKY/WX TMP DP RH WIND PRES REMARKS
 
CLARKSBURG FAIR 63 18 17 N7 30.31F  
MORGANTOWN FAIR 58 22 24 NW6 30.34F  

 
 
WVZ025-035-042-045-212200-  
SOUTHERN WEST VIRGINIA  
 
CITY SKY/WX TMP DP RH WIND PRES REMARKS
 
BECKLEY FAIR 67 22 18 CALM 30.28F  
LOGAN FAIR 68 19 15 CALM 30.27S  
BLUEFIELD FAIR 63 21 20 S8 30.29F  
LEWISBURG FAIR 64 22 19 S6 30.30F  

 
 
WVZ047-212200-  
NORTHERN MOUNTAINS OF WEST VIRGINIA  
 
CITY SKY/WX TMP DP RH WIND PRES REMARKS
 
ELKINS FAIR 63 11 13 N7 30.30S  

 
 
WVZ052-212200-  
EASTERN PANHANDLE OF WEST VIRGINIA  
 
CITY SKY/WX TMP DP RH WIND PRES REMARKS
 
MARTINSBURG FAIR 60 26 27 NE3 30.32F  
PETERSBURG FAIR 65 26 23 CALM 30.29S  

 
 
 
CLICK HERE TO GO TO PREVIOUS BULLETINS.

The Nexlab WV Page
The Nexlab OH Page
The Nexlab KY Page
The Nexlab VA Page Main Text Page